478  
ASUS43 KFSD 280410  
RWRFSD  
 
WEATHER ROUNDUP FOR SE SOUTH DAKOTA/SW MINNESOTA/NW IOWA  
NATIONAL WEATHER SERVICE SIOUX FALLS SD  
1000 PM CST SUN NOV 27 2022  
 
NOTE: "FAIR" INDICATES FEW OR NO CLOUDS BELOW 12,000 FEET WITH NO  
SIGNIFICANT WEATHER AND OR S TO VISIBILITY
.  
 
 
SDZ038>040-050-052>070-280500-  
SOUTHEAST SOUTH DAKOTA  
 
CITY SKY/WX TMP DP RH WIND PRES REMARKS
 
BROOKINGS MOCLDY 26 19 74 S12 29.72F WCI 16  
CHAMBERLAIN MOCLDY 31 18 59 SE10 29.64F WCI 22  
HURON PTCLDY 31 21 66 S13 29.69F WCI 21  
MADISON MOCLDY 25 23 93 S10 29.72F WCI 15  
MITCHELL PTCLDY 31 20 63 S14 29.71F WCI 21  
SIOUX FALLS PTCLDY 26 16 65 S9 29.77F WCI 17  
WINNER MOCLDY 37 18 46 S23G31 29.61F  
YANKTON PTCLDY 26 20 77 S6 29.79F WCI 19  

 
 
MNZ071-072-080-081-089-090-097-098-280500-  
SOUTHWEST MINNESOTA  
 
CITY SKY/WX TMP DP RH WIND PRES REMARKS
 
JACKSON CLEAR 21 18 86 S3 29.82S  
LUVERNE PTCLDY 18 12 79 CALM 29.80F  
MARSHALL MOCLDY 25 21 85 S8 29.78F WCI 16  
MONTEVIDEO MOCLDY 28 27 93 S7 29.77F WCI 21  
REDWOOD FALLS MOCLDY 23 21 92 S8 29.80F WCI 14  
TRACY PTCLDY 27 27 100 S8 29.78F WCI 18  
WINDOM PTCLDY 19 18 93 CALM 29.80F  
WORTHINGTON PTCLDY 21 17 84 SW6 29.80F WCI 13  

 
 
IAZ001>003-012>014-020>022-031-032-NEZ013-014-SDZ071-280500-  
NORTHWEST IOWA  
 
CITY SKY/WX TMP DP RH WIND PRES REMARKS
 
CHEROKEE PTCLDY 18 17 93 CALM 29.83F  
DENISON PTCLDY 18 18 100 E5 29.86F WCI 11  
ESTHERVILLE CLEAR 21 17 84 S5 29.82S WCI 15  
LE MARS PTCLDY 18 14 86 CALM 29.82S  
MAURICE FAIR 25 16 68 S12 29.81R WCI 14  
SHELDON PTCLDY 19 16 86 CALM 29.80R  
SIOUX CITY PTCLDY 20 14 77 E5 29.84S WCI 13  
SPENCER CLEAR 21 14 74 SE6 29.81F WCI 13  

 
 
ABBREVIATIONS USED IN REMARKS  
TC - TEMPERATURE IN CELSIUS  
WCI - WIND CHILL INDEX  
HX - HEAT INDEX  
VSB - VISIBILITY  
 
 
 
CLICK HERE TO GO TO PREVIOUS BULLETINS.

The Nexlab SD Page
The Nexlab IA Page
The Nexlab MN Page
The Nexlab NE Page Main Text Page